Home > Weather > Pyatigorsk > Past weeks

Flag for Russia Weather for the Past 2 Weeks in Pyatigorsk, Russia

Now
54 °F

Passing clouds.


Feels Like: 54 °F
Forecast: 49 / 58 °F
Wind: 1 mph from Northeast

Location: Mineral'Nye Vody

Current Time: May 5, 2016 at 4:11:13 AM

Latest Report: May 5, 2016 at 3:30 AM


Visibility: N/A

Pressure: 29.77 "Hg (27.93 "Hg at 533m altitude)

Humidity: 94%

Dew Point: 52 °F

Location of PyatigorskLocation

Historic Weather in Pyatigorsk — Graph

°F

Pyatigorsk Temperature Yesterday

Maximum temperature yesterday: 61 °F (at 2:00 PM)
Minimum temperature yesterday: 50 °F (at 2:30 AM)
Average temperature yesterday: 56 °F

High & Low Weather Summary for the Past Weeks

 TemperatureHumidityPressure
High77 °F (Apr 20, 2:30 PM)100% (Apr 24, 6:00 AM)30.21 "Hg (Apr 24, 6:00 AM)
Low41 °F (Apr 22, 4:30 AM)30% (Apr 23, 1:30 PM)29.53 "Hg (Apr 25, 11:30 AM)
Average56 °F73%29.93 "Hg
* Reported Apr 20 3:00 AM — May 5 3:00 AM, Pyatigorsk, Weather by CustomWeather, © 2016

Note: Actual official high and low records may vary slightly from our data, if they occured in-between our weather recording intervals... More about our weather records

Advertising

Pyatigorsk Weather History for the Previous 24 Hours

Scroll right to see more
 ConditionsComfort  
Time TempWeatherWind HumidityBarometerVisibility
3:00 AM
Thu, May 5
54 °FPassing clouds.3 mph94%29.74 "HgN/A
2:30 AM54 °FOvercast.3 mph94%29.74 "HgN/A
2:00 AM54 °FOvercast.3 mph94%29.74 "HgN/A
1:30 AM54 °FOvercast.3 mph94%29.74 "HgN/A
1:00 AM54 °FOvercast.6 mph94%29.74 "HgN/A
12:30 AM54 °FPassing clouds.6 mph94%29.74 "HgN/A
12:00 AM55 °FPassing clouds.6 mph88%29.74 "HgN/A
11:30 PM
Wed, May 4
55 °FPassing clouds.3 mph88%29.77 "HgN/A
11:00 PM55 °FPassing clouds.3 mph88%29.77 "HgN/A
10:30 PM55 °FPassing clouds.3 mph88%29.74 "HgN/A
10:00 PM55 °FPassing clouds.6 mph88%29.74 "HgN/A
9:30 PM55 °FPassing clouds.6 mph88%29.77 "HgN/A
9:00 PM55 °FPassing clouds.1 mph82%29.74 "HgN/A
8:30 PM55 °FSprinkles. Overcast.6 mph88%29.74 "HgN/A
8:00 PM55 °FOvercast.20 mph88%29.68 "HgN/A
7:30 PM55 °FSprinkles. Overcast.17 mph94%29.71 "Hg6 mi
7:00 PM55 °FSprinkles. Overcast.1 mph94%29.74 "HgN/A
6:30 PM57 °FSprinkles. Overcast.8 mph88%29.77 "HgN/A
6:00 PM61 °FOvercast.6 mph72%29.77 "HgN/A
5:30 PM61 °FClear.8 mph72%29.74 "HgN/A
5:00 PM61 °FBroken clouds.8 mph72%29.74 "HgN/A
4:30 PM61 °FSprinkles. Broken clouds.13 mph72%29.71 "HgN/A
4:00 PM59 °FSprinkles. Partly sunny.10 mph82%29.71 "HgN/A
3:30 PM61 °FSprinkles. Partly sunny.15 mph72%29.71 "HgN/A
3:00 PM61 °FPartly sunny.15 mph77%29.71 "HgN/A
2:30 PM61 °FPartly sunny.10 mph72%29.71 "HgN/A
2:00 PM61 °FPartly sunny.13 mph72%29.71 "HgN/A
1:30 PM59 °FPartly sunny.13 mph72%29.71 "HgN/A
1:00 PM59 °FPartly sunny.15 mph77%29.71 "HgN/A
12:30 PM59 °FPartly sunny.17 mph77%29.71 "HgN/A
12:00 PM59 °FPartly sunny.22 mph72%29.71 "HgN/A
11:30 AM59 °FPartly sunny.22 mph77%29.71 "HgN/A
11:00 AM59 °FPartly sunny.24 mph77%29.71 "HgN/A
10:30 AM59 °FPartly sunny.24 mph72%29.71 "HgN/A
10:00 AM59 °FPartly sunny.26 mph72%29.74 "HgN/A
9:30 AM59 °FPartly sunny.24 mph72%29.71 "HgN/A
9:00 AM57 °FScattered clouds.20 mph77%29.71 "HgN/A
8:30 AM55 °FScattered clouds.17 mph82%29.71 "HgN/A
8:00 AM54 °FPartly sunny.17 mph82%29.74 "HgN/A
7:30 AM52 °FPartly sunny.15 mph94%29.74 "HgN/A
7:00 AM50 °FFog.17 mph94%29.74 "Hg3 mi
6:30 AM50 °FLow clouds.15 mph94%29.74 "Hg4 mi
6:00 AM50 °FPartly sunny.13 mph94%29.77 "HgN/A
5:30 AM50 °FPartly sunny.10 mph82%29.77 "HgN/A
5:00 AM50 °FPartly sunny.10 mph82%29.77 "HgN/A
4:30 AM50 °FPassing clouds.10 mph76%29.77 "HgN/A
4:00 AM50 °FPassing clouds.10 mph76%29.77 "HgN/A
Weather by CustomWeather, © 2016

See weather overviewHow to use our weather pages